Location: Ebendorf
(52.1827°N, 11.5706°E)
Time: 12:33:09
(UTC+00:00)

Cosmos 2278 - Pass Details

Date: 15 May 2021
Orbit: 841 x 852 km, 71.1° (Epoch: 20 June)

Event Time Altitude Azimuth Distance (km) Brightness Sun altitude
Exits shadow 01:56:47 10° 196° (SSW) 2,449 5.5 -10.2°
Maximum altitude 02:02:21 67° 115° (ESE) 924 4.0 -9.7°
Drops below altitude 10° 02:08:01 10° 35° (NE) 2,488 7.8 -9.1°
Sets 02:10:29 0° 33° (NNE) 3,427 8.9 -8.8°
